Weather History for Phuket, Thailand

Change the Weather History Date:

Sunday, February 13, 2011

  Actual Average Record
Temperature  
Mean Temperature 82 °F -  
Max Temperature 91 °F 91 °F 98 °F (2003)
Min Temperature 74 °F 75 °F 69 °F (2000)
Cooling Degree Days 18    
Growing Degree Days 32 (Base 50)    
Moisture  
Dew Point 72 °F    
Average Humidity 71    
Maximum Humidity 94    
Minimum Humidity 47    
Precipitation  
Precipitation 0.01 in 0.06 in - ()
Sea Level Pressure  
Sea Level Pressure 29.79 in    
Wind  
Wind Speed 6 mph ()    
Max Wind Speed 13 mph    
Max Gust Speed -    
Visibility 4.8 miles    
Events Rain , Thunderstorm    
Averages and records for this station are not official NWS values.
T = Trace of Precipitation, MM = Missing Value Source: Averaged Metar Reports

Daily Weather History Graph

Daily Weather History Graph

Search for Another Location

Airport:

Trip Planner

Search our weather history database for the weather conditions in past years. The results will help you decide how hot, cold, wet, or windy it might be!

Date:

Astronomy

Feb. 13, 2011 Rise Set
Actual Time 6:45 AM ICT 6:36 PM ICT
Civil Twilight 6:23 AM ICT 6:58 PM ICT
Nautical Twilight 5:59 AM ICT 7:22 PM ICT
Astronomical Twilight 5:34 AM ICT 7:47 PM ICT
Moon 1:45 PM ICT (2/13) 1:46 AM ICT (2/13)
Length of Visible Light 12h 34m
Length of Day
11h 51m
Waxing Gibbous, 69% of the Moon is Illuminated
Feb 13
Waxing Gibbous
Feb 18
Full
Feb 25
Last Quarter
Mar 5
New
Mar 13
First Quarter

Hourly Weather History & Observations

Time (ICT) Temp. Heat Index Dew Point Humidity Pressure Visibility Wind Dir Wind Speed Gust Speed Precip Events Conditions
12:00 AM 80.6 °F 85.4 °F 73.4 °F 79% 29.83 in 1.9 mi East 11.5 mph - N/A Rain Rain
12:30 AM 78.8 °F - 73.4 °F 83% 29.83 in 3.1 mi ESE 12.7 mph - N/A   Mostly Cloudy
1:00 AM 78 °F - 73 °F 80% 29.80 in 5 mi East 6.9 mph - - Thunderstorm Light Thunderstorm
1:00 AM 77.0 °F - 71.6 °F 83% 29.80 in 3.7 mi East 5.8 mph - N/A   Mostly Cloudy
1:30 AM 78.8 °F - 71.6 °F 78% 29.80 in 3.7 mi Variable 1.2 mph - N/A   Mostly Cloudy
2:00 AM 77.0 °F - 71.6 °F 83% 29.77 in 3.7 mi Calm Calm - N/A   Mostly Cloudy
2:30 AM 77.0 °F - 73.4 °F 89% 29.80 in 2.5 mi Calm Calm - N/A Rain Rain
3:00 AM 77.0 °F - 73.4 °F 89% 29.77 in 2.5 mi Calm Calm - N/A Rain Rain
3:30 AM 75.2 °F - 71.6 °F 89% 29.80 in 3.7 mi Calm Calm - N/A   Mostly Cloudy
4:00 AM 75.2 °F - 73.4 °F 94% 29.77 in 3.7 mi Calm Calm - N/A   Mostly Cloudy
4:30 AM 75.2 °F - 73.4 °F 94% 29.77 in 3.7 mi Calm Calm - N/A   Mostly Cloudy
5:00 AM 75.2 °F - 73.4 °F 94% 29.77 in 3.1 mi Calm Calm - N/A   Mostly Cloudy
5:30 AM 75.2 °F - 73.4 °F 94% 29.77 in 3.1 mi Variable 2.3 mph - N/A   Mostly Cloudy
6:00 AM 77.0 °F - 71.6 °F 83% 29.80 in 3.1 mi ENE 6.9 mph - N/A   Mostly Cloudy
6:30 AM 78.8 °F - 69.8 °F 74% 29.80 in 4.3 mi ENE 6.9 mph - N/A   Mostly Cloudy
7:00 AM 77 °F - 73 °F 83% 29.78 in 6 mi East 5.8 mph - -   Partly Cloudy
7:00 AM 78.8 °F - 69.8 °F 74% 29.80 in 5.0 mi ENE 8.1 mph - N/A   Mostly Cloudy
7:30 AM 78.8 °F - 69.8 °F 74% 29.83 in 5.6 mi ENE 8.1 mph - N/A   Mostly Cloudy
8:00 AM 78.8 °F - 71.6 °F 78% 29.83 in 5.6 mi East 8.1 mph - N/A   Mostly Cloudy
8:30 AM 80.6 °F 84.6 °F 71.6 °F 74% 29.86 in 5.6 mi ENE 9.2 mph - N/A   Mostly Cloudy
9:00 AM 82.4 °F 87.2 °F 71.6 °F 70% 29.86 in 5.6 mi ENE 9.2 mph - N/A   Mostly Cloudy
9:30 AM 82.4 °F 86.3 °F 69.8 °F 66% 29.86 in 5.6 mi East 11.5 mph - N/A   Mostly Cloudy
10:00 AM 82.4 °F 86.3 °F 69.8 °F 66% 29.86 in 5.6 mi East 12.7 mph - N/A   Mostly Cloudy
10:30 AM 84.2 °F 88.4 °F 69.8 °F 62% 29.86 in 5.6 mi East 10.4 mph - N/A   Mostly Cloudy
11:00 AM 84.2 °F 88.4 °F 69.8 °F 62% 29.86 in 5.0 mi East 10.4 mph - N/A   Mostly Cloudy
11:30 AM 86.0 °F 90.4 °F 69.8 °F 58% 29.86 in 5.0 mi East 11.5 mph - N/A   Mostly Cloudy
12:00 PM 86.0 °F 90.4 °F 69.8 °F 58% 29.83 in 5.0 mi East 9.2 mph - N/A   Mostly Cloudy
12:30 PM 87.8 °F 93.8 °F 71.6 °F 58% 29.80 in 5.0 mi East 9.2 mph - N/A   Mostly Cloudy
1:00 PM 88 °F - 71 °F 47% 29.78 in 6 mi East 11.5 mph - -   Scattered Clouds
1:00 PM 87.8 °F 93.8 °F 71.6 °F 58% 29.80 in 5.0 mi East 9.2 mph - N/A   Mostly Cloudy
1:30 PM 87.8 °F 93.8 °F 71.6 °F 58% 29.80 in 5.0 mi East 9.2 mph - N/A   Mostly Cloudy
2:00 PM 87.8 °F 93.8 °F 71.6 °F 58% 29.77 in 5.0 mi ENE 9.2 mph - N/A   Mostly Cloudy
2:30 PM 87.8 °F 93.8 °F 71.6 °F 58% 29.77 in 5.0 mi ENE 9.2 mph - N/A   Mostly Cloudy
3:00 PM 89.6 °F 94.7 °F 69.8 °F 52% 29.74 in 5.0 mi ENE 6.9 mph - N/A   Mostly Cloudy
3:30 PM 89.6 °F 96.2 °F 71.6 °F 55% 29.74 in 5.0 mi East 6.9 mph - N/A   Mostly Cloudy
4:00 PM 87.8 °F 92.6 °F 69.8 °F 55% 29.71 in 5.0 mi ENE 6.9 mph - N/A   Mostly Cloudy
4:30 PM 89.6 °F 94.7 °F 69.8 °F 52% 29.71 in 5.0 mi East 4.6 mph - N/A   Mostly Cloudy
5:00 PM 89.6 °F 96.2 °F 71.6 °F 55% 29.71 in 5.0 mi ENE 3.5 mph - N/A   Mostly Cloudy
5:30 PM 86.0 °F 95.1 °F 75.2 °F 70% 29.71 in 5.0 mi NNW 4.6 mph - N/A   Mostly Cloudy
6:00 PM 86.0 °F 91.8 °F 71.6 °F 62% 29.74 in 5.0 mi WNW 10.4 mph - N/A   Mostly Cloudy
6:30 PM 84.2 °F 89.6 °F 71.6 °F 66% 29.74 in 5.0 mi West 9.2 mph - N/A   Mostly Cloudy
7:00 PM 85 °F - 75 °F 64% 29.72 in 6 mi Calm Calm - -   Scattered Clouds
7:00 PM 84.2 °F 90.9 °F 73.4 °F 70% 29.74 in 5.0 mi WNW 8.1 mph - N/A   Mostly Cloudy
7:30 PM 82.4 °F 88.2 °F 73.4 °F 74% 29.74 in 5.0 mi WNW 8.1 mph - N/A   Mostly Cloudy
8:00 PM 82.4 °F 88.2 °F 73.4 °F 74% 29.77 in 5.0 mi WNW 6.9 mph - N/A   Mostly Cloudy
8:30 PM 82.4 °F 87.2 °F 71.6 °F 70% 29.77 in 5.6 mi NW 6.9 mph - N/A   Scattered Clouds
9:00 PM 82.4 °F 87.2 °F 71.6 °F 70% 29.77 in 6.2 mi WNW 9.2 mph - N/A   Scattered Clouds
9:30 PM 82.4 °F 87.2 °F 71.6 °F 70% 29.80 in 6.2 mi WNW 5.8 mph - N/A   Scattered Clouds
10:00 PM 82.4 °F 87.2 °F 71.6 °F 70% 29.80 in 6.2 mi WNW 5.8 mph - N/A   Scattered Clouds
10:30 PM 82.4 °F 88.2 °F 73.4 °F 74% 29.80 in 6.2 mi WNW 3.5 mph - N/A   Scattered Clouds
11:00 PM 80.6 °F 85.4 °F 73.4 °F 79% 29.80 in 6.2 mi Calm Calm - N/A   Scattered Clouds
11:30 PM 80.6 °F 84.6 °F 71.6 °F 74% 29.80 in 5.6 mi Calm Calm - N/A   Mostly Cloudy